Tracking 35274 objects as of 10-Sep-2026
HD Live streaming from Space Station
objects crossing your sky now

COSMOS 2268

Track COSMOS 2268 now!
10-day predictions
COSMOS 2268 is classified as:


NORAD ID: 22999
Int'l Code: 1994-011A
Launch date: February 12, 1994
Source: Commonwealth of Independent States (former USSR) (CIS)
Launch site: PLESETSK MISSILE AND SPACE COMPLEX (PKMTR)
Your satellite tracking list
Your tracking list is empty




NASA's NSSDC Master Catalog

Two Line Element Set (TLE):
1 22999U 94011A   26252.62772433  .00000034  00000-0  13407-3 0  9992
2 22999  82.5736 286.7344 0010448  18.1569 104.5516 12.61229292499409
Source of the keplerian elements: AFSPC